Location: Boston
(42.3580°N, 71.0600°W)
Time: 17:48:57
(UTC-04:00)

ISS - Pass Details

Date: 13 October 2017
Orbit: 401 x 408 km, 51.6° (Epoch: 20 October)

Event Time Altitude Azimuth Distance (km) Brightness Sun altitude
Rises 20:18:47 0° 292° (WNW) 2,326 1.3 -25.4°
Reaches altitude 10° 20:21:14 10° 275° (W) 1,463 0.0 -25.8°
Enters shadow 20:23:05 19° 242° (WSW) 1,048 -1.3 -26.2°
